Погода в Преображеновке

Россия / Еврейская автономная область     48°04′51″N   131°54′09″E
темп.,
°C
ветер,
м/с
пор.,
м/с
влажн.,
%
обл.,
%
осадки,
мм/ч
давл.,
гПа
погр.,
м
13 июня, вс
вс1301:00+17з33800 0.1 100638
04:00+16ссз22793 0.1 100614
07:00+17ссв247938 0.0 100782
10:00+22ссв12655 0.0 1008529
13:00+24ссв226196 0.8 1007509
16:00+26вюв21552 1.4 10061223
19:00+22в57755 0.0 1006340
22:00+17вюв48860 0.0 1009199
14 июня, пн
пн1401:00+14в34950 0.3 101090
04:00+13всв22940 0.3 101032
07:00+14всв12880 0.0 1011131
10:00+19в34660 0.0 1011663
13:00+21вюв55595 0.0 1010945
16:00+23вюв44582 0.0 10091103
19:00+22вюв46698 0.0 1007611
22:00+16в478488 0.0 1008121
15 июня, вт
вт1501:00+13всв3381100 0.0 100833
04:00+11в227615 0.0 100729
07:00+13всв137799 0.0 1008102
10:00+19в456796 0.0 1008565
13:00+23юв4559100 0.0 10071127
16:00+25ююв5660100 0.0 10051497
19:00+22ююв5872100 0.0 1005672
22:00+17юв3691100 0.0 1006100
16 июня, ср
ср1601:00+15вюв2295100 0.0 100630
04:00+15юв3394100 0.0 100670
07:00+15юв3491100 0.0 1006158
10:00+20ююв3475100 0.0 1006695
13:00+24ю466399 0.0 10051437
16:00+24ю3571100 0.1 1004531
19:00+23юз2375100 0.3 100370
22:00+19ю2283100 0.4 100416
17 июня, чт
чт1701:00+17ююв2293100 0.0 100330
04:00+17ююв3396100 0.0 100269
07:00+16юв3695100 0.0 1001206
10:00+20юв5675100 0.0 1000653
13:00+22ююв6771100 0.0 9991128
16:00+20ююв4879100 0.0 998671
19:00+18ююв5888100 0.2 997427
22:00+17вюв51090100 0.3 996429